Location: Newark
(15.4608°S, 41.1635°W)
Time: 09:03:55
(UTC+00:00)

Vanguard 3 - Pass Details

Date: 01 August 2021
Orbit: 510 x 3260 km, 33.3° (Epoch: 22 September)

Event Time Altitude Azimuth Distance (km) Brightness Sun altitude
Rises 08:50:58 0° 264° (W) 4,202 - -4.7°
Exits shadow 08:53:03 - 258° (WSW) 3,493 9.7 -4.2°
Reaches altitude 10° 08:55:28 10° 246° (WSW) 2,717 9.2 -3.7°
Maximum altitude 08:59:19 17° 207° (SSW) 1,886 8.7 -2.8°
Drops below altitude 10° 09:02:21 10° 165° (SSE) 2,044 9.2 -2.1°
Sets 09:05:05 0° 142° (SE) 2,760 10.2 -1.5°
